sat.trackr.live / text

‹ back to catalog

STARLINK-11694 [DTC]

NORAD 64243 · 2025-119L

PAYLOAD ACTIVE UNKNOWN

§ Identity

Operator
Country
US
Launch date
2025-06-03
Launch site
AFETR
Launch vehicle
Mass (kg)
RCS (m²)

Purposes: comms

External: N2YO · Heavens-Above · Gunter

§ Orbital elements

Epoch: 2026-05-25T04:00:03.998880Z

Period
91.72 min
Inclination
42.9990°
Eccentricity
0.0001374
Mean motion
15.69916761 rev/d
Perigee alt
358.2 km
Apogee alt
360.1 km
Semi-major
6,737.3 km
B*
-4.1613e-4
RAAN
108.5939°
Arg perigee
248.8369°
Mean anomaly
247.1791°
Rev number
597

§ Raw data

STARLINK-11694 [DTC]1 64243U 25119L   26145.16671295 -.00051495  00000+0 -41613-3 0  99952 64243  42.9990 108.5939 0001374 248.8369 247.1791 15.69916761  5977

JSON: /api/v1/satellites/64243 · /tle

For live sub-satellite position, see the globe view (requires WebGL).

§ Visibility from observer

Set your observer location to see the next 7 days of passes ≥ 10°. The values pass through the URL so the page stays shareable.

No JS? Fill the form by hand. The geolocation button needs JavaScript.